User: anonymous   Login
Location: Klein M�hlingen
(51.9472°N, 11.7453°E)
Time: 20:53:48
(UTC+00:00)
Language:

IGS 5A - Orbit

View from above orbital plane
View from above orbital plane
View from above satellite
View from above satellite

Ground track
Ground track

The orbit data is extracted from the following two-line orbital elements,

1 36104U 09066A   20184.90490540 0.00000100  00000-0  94415-5 0    03
2 36104  97.5882 246.3231 0000997 203.0559 156.9439 14.93810377    05
Epoch (UTC): 02 July 2020 21:43:03
Eccentricity: 0.0000997
inclination: 97.5882°
perigee height: 585 km
apogee height: 587 km
right ascension of ascending node: 246.3231°
argument of perigee: 203.0559°
revolutions per day: 14.93810377
mean anomaly at epoch: 156.9439°
orbit number at epoch: 0

The dashed part of the orbit path shows where the satellite is in the earth's shadow,  

DLR